Regional Weather Roundup
Issued by NWS Cleveland, OH

Home | Current Version | Previous Version | Graphics & Text | Print | Product List | Glossary On
Versions: 1 2 3 4 5 6 7 8 9 10 11 12 13 14 15 16 17 18 19 20 21 22 23 24 25 26 27 28 29 30 31 32 33 34 35 36 37 38 39 40 41 42 43 44 45 46 47 48 49 50
000
ASUS41 KCLE 030212
RWRCLE
OHIO REGIONAL WEATHER ROUNDUP
NATIONAL WEATHER SERVICE WILMINGTON, OH
1000 PM EDT MON MAY 02 2016

NOTE: "FAIR" INDICATES FEW OR NO CLOUDS BELOW 12,000 FEET WITH NO
SIGNIFICANT WEATHER AND/OR OBSTRUCTIONS TO VISIBILITY.

OHZ001>008-015>018-024>027-034-035-043-044-030300-
   NORTHWEST OHIO

CITY           SKY/WX    TMP DP  RH WIND       PRES   REMARKS
DEFIANCE       CLOUDY    50  46  86 N3        29.99S
FINDLAY        CLOUDY    51  43  74 NE6       29.97S
TOLEDO EXPRESS CLOUDY    49  45  86 CALM      29.98S
TOLEDO EXEC    CLOUDY    50  45  83 E6        29.99S
LIMA           CLOUDY    50  46  86 NE9       29.97R
$$

OHZ009>014-019>023-028>033-038-089-030300-
   NORTHEAST OHIO

CITY           SKY/WX    TMP DP  RH WIND       PRES   REMARKS
CLE-HOPKINS    MOCLDY    46  42  86 N5        30.00S
CLE-LAKEFRONT  MOCLDY    47  44  90 N8        29.98S
CUY CO. ARPT   PTCLDY    45  43  93 CALM      29.98S
LORAIN-ELYRIA  CLOUDY    45  40  82 NE5       29.98F
ASHTABULA      FAIR      44  41  89 CALM      29.98R
AKRON-CANTON   FAIR      47  42  83 NE5       29.96S
WOOSTER        MOCLDY    46  43  89 N7        29.96S
MANSFIELD      FAIR      46  43  89 NE6       29.96S
YOUNGSTOWN     CLOUDY    46  42  86 VRB5      29.95F
$$

OHZ042-051>053-060>062-070>072-077>081-030300-
  SOUTHWEST OHIO

CITY           SKY/WX    TMP DP  RH WIND       PRES   REMARKS
CINC-COVINGTON MOCLDY    57  51  80 NW6       29.93R
CINC-LUNKEN    CLOUDY    59  54  83 N7        29.94R
HAMILTON       CLOUDY    58  52  80 N6        29.95R
DAYTON         CLOUDY    53  49  86 N7        29.95S
WRIGHT-PAT AFB NOT AVBL
DAYTON GENERAL CLOUDY    54  49  83 NE6       29.94R
WILMINGTON     CLOUDY    53  50  89 NE9       29.93S
$$

OHZ036-037-039>041-045>050-054>059-063>069-073>076-082>088-030300-
  CENTRAL AND SOUTHEAST OHIO

CITY           SKY/WX    TMP DP  RH WIND       PRES   REMARKS
COLUMBUS       CLOUDY    52  47  83 NE8       29.93S
OSU AIRPORT    CLOUDY    52  47  83 N6        29.94S
BOLTON FIELD   CLOUDY    53  49  87 N7        29.95R
RICKENBACK AFB CLOUDY    55  49  81 NE8       29.93S
NEWARK         FAIR      53  46  77 N5        29.94S
MARION         MOCLDY    47  44  90 NE8       29.97S
LANCASTER      MOCLDY    54  49  83 N7        29.94S
ZANESVILLE     CLOUDY    55  47  74 N6        29.93F
NEW PHILLY     MOCLDY    52  45  77 N6        29.95S
$$




USA.gov is the U.S. government's official web portal to all federal, state and local government web resources and services.